OPTUS C1

Last updated on Nov. 19, 2019, 4:25 a.m. UTC

1 27831U 03028B   19322.51560757 -.00000145  00000-0  00000+0 0  9997
2 27831   0.9185  96.9382 0005456 142.9393 158.7666  1.00271556 60231
UTC
Height (km)
Latitude
Longitude
Inclination
Orbital Period
UTC large
Height (km)
Speed (km/s)
/
Latitude / Longitude
Inclination (degrees)
Orbital Period (minutes)
Azimuth
Elevation
Range (km)
Doppler Factor
iOS Compass Heading
iOS Angle

Next 30 passes for location: Hong Kong

Rise time Rise Azimuth (degrees) Set time Set Azimuth (degrees) Duration Max altitude (degrees)

No matching passes for this satellites